{"data":{"norad_id":48676,"intl_designator":"2021-044AQ","name":"STARLINK-2746","alt_names":[],"object_type":"PAYLOAD","status":"ACTIVE","operator":null,"country":"US","launch_date":"2021-05-26","launch_site_code":"AFETR","launch_vehicle":null,"mission":null,"orbit_class":"UNKNOWN","rcs_meters":null,"size_class":null,"mass_kg":null,"dimensions":null,"purposes":["comms"],"wikipedia_slug":null,"has_3d_model":false,"image_url":null,"decayed_at":null,"tle_current":{"epoch":"2026-05-25T04:37:27.278976Z","epoch_age_seconds":68719,"freshness":"FRESH","line1":"1 48676U 21044AQ  26145.19267684 -.00000315  00000+0  13986-5 0  9994","line2":"2 48676  53.1602 118.5998 0000926  76.1370 283.9734 15.29362779275520","mean_motion":15.29362779,"eccentricity":9.26e-5,"inclination_deg":53.1602,"raan_deg":118.5998,"arg_perigee_deg":76.137,"mean_anomaly_deg":283.9734,"bstar":1.3986e-6,"rev_number":27552,"period_min":94.156861914841,"perigee_km":477.08114874447,"apogee_km":478.3508527202,"semimajor_km":6855.8530007323,"source":"CELESTRAK","updated_at":"2026-05-25T13:38:16.760004Z"}}}